Вернуться в каталог

STARLINK-32329

АктивенСвязьVLEO
NORAD 62736·PAYLOAD·🇺🇸 United States

Запущен Jan 21, 2025 с Cape Canaveral Space Force Station

Loading…

Ближайшие Пролёты (ближайшие 24 часа)

TLE

СвежийSource: CelesTrak SupGP

Эпоха: Sep 15, 2026, 02:25 UTC

1 62736C 25014B   26258.10118056 -.00011986  00000+0 -43422-3 0  2583
2 62736  43.0005 164.6220 0001316 276.3517 177.7547 15.27576969    17

Отслеживайте STARLINK-32329 в реальном времени с AllMySat

Download on the App Store